View from above orbital plane
|
View from above satellite
|
Ground track
|
The orbit data is extracted from the following two-line orbital elements,
1 32376U 07059A 21112.77731777 -.00000117 00000-0 -81309-5 0 9992
2 32376 97.8905 297.4619 0001409 88.2409 271.8960 14.82149269723397
Epoch (UTC): | 22 April 2021 18:39:20 |
Eccentricity: | 0.0001409 |
inclination: | 97.8905° |
perigee height: | 621 km |
apogee height: | 623 km |
right ascension of ascending node: | 297.4619° |
argument of perigee: | 88.2409° |
revolutions per day: | 14.82149269 |
mean anomaly at epoch: | 271.8960° |
orbit number at epoch: | 72339 |
The dashed part of the orbit path shows where the satellite is in the earth's shadow,
|
|